DW3400 Weather Reports


time (UTC)temp
F
wind
direction
speed
knots
gust
knots
rain 1hr
in
rain 24hr
in
rain mn
in
humidity
%
barometer
mb
20260507172003 56 193 0.9 2.6 0.00 0.00 0.00 48 1020.7
20260507171504 56 199 1.7 4.3 0.00 0.00 0.00 47 1020.8
20260507170503 56 128 1.7 2.6 0.00 0.00 0.00 49 1020.7
20260507165504 56 114 1.7 2.6 0.00 0.00 0.00 50 1020.6
20260507165003 56 107 1.7 2.6 0.00 0.00 0.00 49 1020.6
20260507164504 56 115 1.7 4.3 0.00 0.00 0.00 49 1020.6
20260507163004 57 124 2.6 5.2 0.00 0.00 0.00 46 1020.6
20260507162003 57 175 1.7 6.1 0.00 0.00 0.00 46 1020.6
20260507155004 56 94 2.6 8.7 0.00 0.00 0.00 49 1020.4
20260507154503 56 109 2.6 7.0 0.00 0.00 0.00 48 1020.4
20260507154005 56 109 3.5 7.0 0.00 0.00 0.00 49 1020.4
20260507153504 56 103 4.3 7.0 0.00 0.00 0.00 48 1020.4
20260507153004 57 131 2.6 7.0 0.00 0.00 0.00 47 1020.3
20260507151004 56 115 5.2 8.7 0.00 0.00 0.00 52 1020.4
20260507150004 56 104 4.3 10.4 0.00 0.00 0.00 55 1020.3
20260507145503 56 80 4.3 7.8 0.00 0.00 0.00 52 1020.3
20260507143004 56 111 4.3 8.7 0.00 0.00 0.00 51 1020.1
20260507141004 56 100 5.2 10.4 0.00 0.00 0.00 49 1020.2
20260507135504 56 61 3.5 7.8 0.00 0.00 0.00 52 1020.2
20260507135003 56 64 3.5 7.8 0.00 0.00 0.00 52 1020.2
20260507134504 56 83 4.3 8.7 0.00 0.00 0.00 54 1020.2
20260507134004 56 95 4.3 10.4 0.00 0.00 0.00 53 1020.2
20260507133504 56 88 6.1 7.8 0.00 0.00 0.00 50 1020.2
20260507132504 56 54 5.2 7.8 0.00 0.00 0.00 53 1020.2
20260507131504 56 92 4.3 10.4 0.00 0.00 0.00 54 1020.0
20260507131004 55 103 6.1 10.4 0.00 0.00 0.00 53 1020.1
20260507130503 56 92 6.1 13.9 0.00 0.00 0.00 52 1020.2
20260507125503 56 97 5.2 10.4 0.00 0.00 0.00 56 1020.1
20260507125004 56 100 5.2 10.4 0.00 0.00 0.00 53 1020.0
20260507124003 56 66 4.3 11.3 0.00 0.00 0.00 53 1020.1
20260507123004 56 89 3.5 10.4 0.00 0.00 0.00 58 1020.0
20260507122504 56 92 5.2 12.2 0.00 0.00 0.00 56 1019.9
20260507122004 56 90 7.0 10.4 0.00 0.00 0.00 55 1019.9
20260507121504 56 72 5.2 12.2 0.00 0.00 0.00 57 1019.8
20260507121004 56 92 7.8 12.2 0.00 0.00 0.00 57 1019.9
20260507113504 55 81 5.2 12.2 0.00 0.00 0.00 54 1019.8
20260507113004 55 85 6.1 11.3 0.00 0.00 0.00 60 1019.7
20260507112504 55 63 6.1 11.3 0.00 0.00 0.00 58 1019.6
20260507112004 55 51 4.3 11.3 0.00 0.00 0.00 60 1019.6
20260507111004 55 82 7.8 13.9 0.00 0.00 0.00 60 1019.5
20260507110004 56 104 4.3 11.3 0.00 0.00 0.00 63 1019.5
20260507102504 55 79 5.2 8.7 0.00 0.00 0.00 68 1019.5
20260507101004 55 57 3.5 7.8 0.00 0.00 0.00 70 1019.2
20260507100503 55 71 6.1 11.3 0.00 0.00 0.00 69 1019.3
20260507094504 55 51 2.6 7.8 0.00 0.00 0.00 68 1019.2
20260507094004 55 94 4.3 8.7 0.00 0.00 0.00 70 1019.2
20260507093004 55 114 4.3 7.8 0.00 0.00 0.00 70 1019.2
20260507091504 55 123 4.3 7.8 0.00 0.00 0.00 70 1018.9
20260507091005 55 53 2.6 7.0 0.00 0.00 0.00 70 1019.0
20260507090503 54 95 5.2 7.0 0.00 0.00 0.00 67 1018.9
20260507085504 55 83 1.7 7.0 0.00 0.00 0.00 66 1018.8
20260507085004 54 88 2.6 7.0 0.00 0.00 0.00 66 1018.8
20260507084004 54 93 2.6 7.8 0.00 0.00 0.00 68 1018.6
20260507083503 54 50 2.6 6.1 0.00 0.00 0.00 65 1018.6
20260507083004 54 51 2.6 6.1 0.00 0.00 0.00 64 1018.6
20260507082504 54 43 2.6 10.4 0.00 0.00 0.00 64 1018.6
20260507081504 53 44 4.3 8.7 0.00 0.00 0.00 65 1018.5
20260507081003 53 72 2.6 8.7 0.00 0.00 0.00 68 1018.5
20260507080004 52 36 2.6 6.1 0.00 0.00 0.00 69 1018.4
20260507074503 52 77 2.6 10.4 0.00 0.00 0.00 69 1018.4
20260507073503 52 60 2.6 7.0 0.00 0.00 0.00 70 1018.3
20260507072004 52 44 1.7 6.1 0.00 0.00 0.00 72 1018.4
20260507071004 51 66 2.6 7.0 0.00 0.00 0.00 74 1018.4
20260507064003 49 58 5.2 10.4 0.00 0.00 0.00 76 1018.1
20260507062003 48 359 2.6 7.0 0.00 0.00 0.00 79 1018.0
20260507061504 48 355 1.7 7.8 0.00 0.00 0.00 81 1018.0
20260507061004 47 39 4.3 7.0 0.00 0.00 0.00 80 1018.0
20260507060003 47 64 5.2 7.8 0.00 0.00 0.00 82 1017.9
20260507055004 47 8 1.7 5.2 0.00 0.00 0.00 83 1017.9
20260507054004 47 25 0.9 2.6 0.00 0.00 0.00 83 1017.8
20260507053504 47 300 0.0 2.6 0.00 0.00 0.00 84 1017.7
20260507053005 47 344 0.9 2.6 0.00 0.00 0.00 84 1017.7
20260507050504 44 5 0.0 1.7 0.00 0.00 0.00 90 1017.6
20260507050004 43 6 0.9 1.7 0.00 0.00 0.00 90 1017.6
20260507045504 43 314 0.0 0.9 0.00 0.00 0.00 91 1017.6
20260507044504 41 307 0.0 0.0 0.00 0.00 0.00 90 1017.5
20260507041504 40 297 0.0 0.9 0.00 0.00 0.00 90 1017.2
20260507040503 40 283 0.0 0.9 0.00 0.00 0.00 90 1017.0
20260507040004 40 283 0.0 0.9 0.00 0.00 0.00 91 1017.1
20260507035504 39 283 0.9 2.6 0.00 0.00 0.00 91 1017.0
20260507034504 39 301 0.9 1.7 0.00 0.00 0.00 91 1016.9
20260507034004 39 307 0.9 1.7 0.00 0.00 0.00 90 1016.8
20260507031004 39 318 0.0 0.9 0.00 0.00 0.00 89 1016.6
20260507025004 40 321 0.0 0.9 0.00 0.00 0.00 89 1016.4
20260507024504 40 321 0.0 1.7 0.00 0.00 0.00 89 1016.3
20260507024003 40 304 0.9 0.9 0.00 0.00 0.00 89 1016.3
20260507023004 41 314 0.9 2.6 0.00 0.00 0.00 89 1016.3
20260507022503 41 300 0.9 1.7 0.00 0.00 0.00 88 1016.3
20260507022003 41 298 0.9 1.7 0.00 0.00 0.00 88 1016.2
20260507020504 42 298 0.9 1.7 0.00 0.00 0.00 86 1016.2
20260507015504 43 348 0.9 2.6 0.00 0.00 0.00 85 1016.1
20260507014004 45 46 1.7 4.3 0.00 0.00 0.00 84 1016.1
20260507013504 45 46 0.9 2.6 0.00 0.00 0.00 84 1016.1
20260507013005 45 53 2.6 7.0 0.00 0.00 0.00 84 1016.1
20260507012004 45 65 1.7 6.1 0.00 0.00 0.00 85 1016.0
20260507011004 44 71 1.7 4.3 0.00 0.00 0.00 85 1016.0
20260507005004 45 87 2.6 5.2 0.00 0.00 0.00 85 1016.0
20260507003504 45 61 1.7 6.1 0.00 0.00 0.00 85 1015.8
20260507003004 45 68 1.7 6.1 0.00 0.00 0.00 84 1015.7
20260506234004 46 50 5.2 10.4 0.00 0.00 0.00 83 1015.6
20260506233504 45 60 3.5 10.4 0.00 0.00 0.00 83 1015.6
20260506233004 45 59 5.2 10.4 0.00 0.00 0.00 83 1015.6
20260506232504 45 60 3.5 10.4 0.00 0.00 0.00 83 1015.5
20260506232004 46 50 4.3 10.4 0.00 0.00 0.00 84 1015.6
20260506230504 46 55 4.3 10.4 0.00 0.00 0.00 84 1015.7
20260506225504 46 52 5.2 10.4 0.00 0.00 0.00 84 1015.7
20260506224504 46 52 2.6 7.0 0.00 0.00 0.00 84 1015.7
20260506222004 45 50 6.1 11.3 0.00 0.00 0.00 84 1015.5
20260506221003 45 64 5.2 10.4 0.00 0.00 0.00 84 1015.6
20260506214003 45 60 3.5 7.8 0.00 0.00 0.00 84 1015.3
20260506212003 45 63 5.2 10.4 0.00 0.00 0.00 84 1015.3
20260506211504 45 61 4.3 7.0 0.00 0.00 0.00 84 1015.3
20260506211004 45 65 3.5 7.0 0.00 0.00 0.00 84 1015.3
20260506205504 45 68 3.5 10.4 0.00 0.00 0.00 83 1015.3
20260506202504 45 89 4.3 12.2 0.00 0.00 0.00 84 1015.3
20260506200004 45 67 6.1 11.3 0.00 0.00 0.00 85 1015.0
20260506195503 45 62 6.1 11.3 0.00 0.00 0.00 85 1015.0
20260506195004 45 78 4.3 13.9 0.00 0.00 0.00 85 1014.9
20260506194504 45 64 4.3 10.4 0.00 0.00 0.00 85 1015.0
20260506194004 45 66 6.1 13.0 0.00 0.00 0.00 85 1015.0
20260506193504 45 65 6.1 14.8 0.00 0.00 0.00 85 1014.9
20260506193004 45 66 4.3 10.4 0.00 0.00 0.00 85 1015.1
20260506192004 45 78 6.1 12.2 0.00 0.00 0.00 85 1015.1
20260506191504 45 67 5.2 13.9 0.00 0.00 0.00 84 1015.1
20260506191003 45 76 5.2 12.2 0.00 0.00 0.00 84 1015.1
20260506185504 45 90 6.1 11.3 0.00 0.00 0.00 84 1014.8
20260506183504 46 77 5.2 12.2 0.00 0.00 0.00 84 1014.6
20260506183005 46 75 7.0 13.0 0.00 0.00 0.00 84 1014.5
20260506182504 46 88 6.1 13.0 0.00 0.00 0.00 84 1014.5
20260506182004 46 91 7.8 15.6 0.00 0.00 0.00 84 1014.4
20260506181003 46 76 6.1 14.8 0.00 0.00 0.00 83 1014.5
20260506180504 46 86 5.2 11.3 0.00 0.00 0.00 83 1014.4
20260506175504 46 75 7.8 13.9 0.00 0.00 0.00 82 1014.3
20260506174504 47 82 6.1 13.9 0.00 0.00 0.00 82 1014.3